User: anonymous   Login
Location: North Fontana
(34.1395°N, 117.4623°W)
Time: 07:34:34
(UTC+00:00)
Language:

USA 308 - Orbit

View from above orbital plane
View from above orbital plane
View from above satellite
View from above satellite

Ground track
Ground track

The orbit data is extracted from the following two-line orbital elements,

1 45876U 20046D   23073.79575234 0.00128000  00000-0  51918-2 0    09
2 45876  53.9670   2.4862 0000264 308.9066  50.7384 15.24118401    02
Epoch (UTC): 14 March 2023 19:05:53
Eccentricity: 0.0000264
inclination: 53.9670°
perigee height: 493 km
apogee height: 493 km
right ascension of ascending node: 2.4862°
argument of perigee: 308.9066°
revolutions per day: 15.24118401
mean anomaly at epoch: 50.7384°
orbit number at epoch: 0

The dashed part of the orbit path shows where the satellite is in the earth's shadow,  

DLR